CW7783 Weather Reports


time (UTC)temp
C
wind
direction
speed
KPH
gust
KPH
rain 1hr
cm
rain 24hr
cm
rain mn
cm
humidity
%
barometer
mb
20260507223721 11 355 0.0 0.0 0.00 0.10 0.00 88 1014.8
20260507223234 11 355 0.0 0.0 0.00 0.10 0.00 88 1014.8
20260507222747 11 355 0.0 0.0 0.00 0.10 0.00 87 1014.8
20260507222230 11 355 0.0 0.0 0.00 0.10 0.00 87 1014.7
20260507221720 11 355 0.0 0.0 0.00 0.10 0.00 87 1014.8
20260507221253 11 355 0.0 0.0 0.00 0.10 0.00 87 1014.8
20260507220721 12 355 0.0 0.0 0.00 0.10 0.00 87 1014.6
20260507220255 12 355 0.0 0.0 0.00 0.10 0.00 87 1014.6
20260507215747 12 355 0.0 0.0 0.00 0.10 0.03 87 1014.6
20260507215232 12 338 0.0 0.0 0.00 0.10 0.03 87 1014.6
20260507214726 12 324 0.0 0.0 0.00 0.10 0.03 87 1014.6
20260507214240 12 324 0.0 0.0 0.00 0.10 0.03 87 1014.6
20260507213724 12 324 0.0 0.0 0.00 0.10 0.03 87 1014.5
20260507213322 12 324 0.0 0.0 0.00 0.10 0.03 87 1014.5
20260507213240 12 324 0.0 0.0 0.00 0.10 0.03 87 1014.5
20260507212724 12 324 0.0 0.0 0.00 0.10 0.03 87 1014.5
20260507212258 12 325 0.0 0.0 0.00 0.10 0.03 87 1014.4
20260507211729 12 318 0.0 0.0 0.00 0.10 0.03 86 1014.4
20260507211243 12 281 0.0 0.0 0.00 0.10 0.03 86 1014.5
20260507210722 12 310 0.0 0.0 0.00 0.10 0.03 86 1014.4
20260507210235 12 323 0.0 0.0 0.00 0.10 0.03 86 1014.5
20260507205725 12 315 0.0 4.8 0.00 0.10 0.03 86 1014.5
20260507205237 12 242 0.0 4.8 0.00 0.10 0.03 85 1014.4
20260507204742 12 331 0.0 1.6 0.00 0.10 0.03 85 1014.4
20260507204251 12 331 0.0 3.2 0.00 0.10 0.03 84 1014.2
20260507203738 12 331 1.6 3.2 0.00 0.10 0.03 83 1014.2
20260507203247 12 307 0.0 0.0 0.00 0.10 0.03 83 1014.3
20260507202728 13 307 0.0 0.0 0.00 0.10 0.03 82 1014.2
20260507202225 13 307 0.0 0.0 0.00 0.10 0.03 83 1014.2
20260507201730 13 307 0.0 0.0 0.00 0.10 0.03 82 1014.0
20260507201232 13 307 0.0 0.0 0.00 0.10 0.03 81 1014.0
20260507200739 13 307 0.0 0.0 0.00 0.10 0.03 81 1014.0
20260507200309 13 307 0.0 3.2 0.00 0.10 0.03 81 1013.9
20260507195746 13 307 1.6 3.2 0.00 0.20 0.03 80 1013.8
20260507195239 13 307 3.2 3.2 0.00 0.20 0.03 80 1013.7
20260507194730 14 234 0.0 0.0 0.00 0.20 0.03 80 1013.7
20260507194319 14 234 0.0 0.0 0.00 0.20 0.03 79 1013.6
20260507193740 14 234 0.0 0.0 0.00 0.20 0.03 77 1013.4
20260507193343 15 234 0.0 0.0 0.00 0.20 0.03 76 1013.4
20260507193239 15 234 0.0 0.0 0.00 0.20 0.03 76 1013.4
20260507192734 15 234 0.0 0.0 0.00 0.20 0.03 76 1013.3
20260507192253 15 234 0.0 0.0 0.00 0.20 0.03 76 1013.3
20260507191800 15 234 0.0 0.0 0.00 0.20 0.03 75 1013.2
20260507191229 15 234 0.0 0.0 0.00 0.20 0.03 74 1013.1
20260507190723 16 234 0.0 0.0 0.00 0.20 0.03 73 1012.9
20260507190234 16 234 0.0 0.0 0.00 0.20 0.03 72 1013.0
20260507185743 16 234 0.0 0.0 0.00 3.00 0.03 71 1013.0
20260507185227 16 234 0.0 0.0 0.00 3.00 0.03 69 1013.0
20260507184739 17 233 0.0 0.0 0.00 3.00 0.03 67 1012.8
20260507184223 17 233 0.0 1.6 0.00 3.00 0.03 65 1012.8
20260507183804 17 233 0.0 4.8 0.00 3.00 0.03 63 1012.8
20260507183222 17 199 0.0 4.8 0.00 3.00 0.03 63 1012.7
20260507182735 17 202 3.2 6.4 0.00 3.00 0.03 61 1012.7
20260507182228 18 201 3.2 6.4 0.00 3.00 0.03 61 1012.7
20260507181737 18 199 3.2 9.7 0.00 3.00 0.03 59 1012.7
20260507181248 18 201 3.2 9.7 0.00 3.00 0.03 58 1012.7
20260507180746 18 200 4.8 11.3 0.00 3.00 0.03 58 1012.6
20260507180222 18 202 6.4 11.3 0.00 3.00 0.03 56 1012.5
20260507175736 18 206 1.6 9.7 0.00 3.20 0.03 56 1012.3
20260507175240 18 206 4.8 9.7 0.00 3.20 0.03 55 1012.3
20260507174729 19 205 1.6 11.3 0.00 3.20 0.03 55 1012.3
20260507174255 19 221 6.4 11.3 0.00 3.20 0.03 54 1012.2
20260507173723 19 196 4.8 9.7 0.00 3.20 0.03 52 1012.3
20260507173235 19 229 4.8 9.7 0.00 3.20 0.03 53 1012.2
20260507172748 19 188 3.2 9.7 0.00 3.20 0.03 52 1012.3
20260507172222 19 203 1.6 11.3 0.00 3.20 0.03 52 1012.2
20260507171734 19 192 6.4 11.3 0.00 3.20 0.03 51 1012.1
20260507171227 19 209 3.2 9.7 0.00 3.20 0.03 52 1012.1
20260507170736 20 224 4.8 9.7 0.00 3.20 0.03 52 1012.1
20260507170247 20 181 4.8 8.0 0.00 3.20 0.03 51 1012.2
20260507165732 20 200 3.2 9.7 0.00 3.20 0.03 51 1012.0
20260507165226 20 189 1.6 11.3 0.00 3.20 0.03 51 1012.0
20260507164732 20 193 8.0 9.7 0.00 3.20 0.03 51 1012.1
20260507164226 20 219 4.8 9.7 0.00 3.20 0.03 52 1012.0
20260507163739 20 141 1.6 11.3 0.00 3.20 0.03 50 1012.0
20260507163223 20 186 4.8 12.9 0.00 3.20 0.03 52 1012.0
20260507162735 20 199 3.2 12.9 0.00 3.20 0.03 50 1012.1
20260507162229 20 202 4.8 11.3 0.00 3.20 0.03 50 1012.0
20260507161758 21 153 4.8 11.3 0.00 3.20 0.03 48 1012.0
20260507161222 21 195 4.8 11.3 0.00 3.20 0.03 49 1012.0
20260507160732 21 227 4.8 11.3 0.00 3.20 0.03 51 1012.0
20260507160226 21 225 6.4 12.9 0.00 3.20 0.03 49 1012.0
20260507155740 21 205 4.8 11.3 0.00 3.20 0.03 50 1012.0
20260507155223 21 194 4.8 16.1 0.00 3.20 0.03 50 1012.0
20260507154736 21 219 4.8 12.9 0.00 3.20 0.03 51 1012.0
20260507154244 21 192 6.4 12.9 0.00 3.20 0.03 52 1012.1
20260507153757 21 209 4.8 9.7 0.00 3.20 0.03 51 1012.0
20260507153221 21 261 3.2 12.9 0.00 3.20 0.03 51 1012.0
20260507152733 21 184 6.4 14.5 0.00 3.20 0.03 50 1012.0
20260507152219 21 192 4.8 12.9 0.00 3.20 0.03 53 1012.0
20260507151753 21 211 6.4 12.9 0.00 3.20 0.03 52 1011.9
20260507151240 21 159 3.2 11.3 0.00 3.20 0.03 51 1012.0
20260507150720 21 103 3.2 9.7 0.00 3.20 0.03 49 1012.0
20260507150234 21 250 4.8 14.5 0.00 3.20 0.03 51 1012.0
20260507145728 21 180 8.0 14.5 0.00 10.01 0.03 50 1012.1
20260507145241 21 236 8.0 11.3 0.00 10.01 0.03 50 1012.0
20260507144725 21 167 1.6 14.5 0.00 10.01 0.03 48 1012.2
20260507144252 21 196 3.2 14.5 0.00 10.01 0.03 49 1012.1
20260507143725 21 217 3.2 12.9 0.00 10.01 0.03 51 1012.2
20260507143240 21 214 8.0 16.1 0.00 10.01 0.03 50 1012.2
20260507142748 21 215 8.0 16.1 0.00 10.01 0.03 52 1012.2
20260507142246 21 231 8.0 14.5 0.00 10.01 0.03 54 1012.3
20260507141751 21 177 4.8 8.0 0.00 10.01 0.03 53 1012.3
20260507141242 21 155 3.2 17.7 0.00 10.01 0.03 53 1012.3
20260507140730 21 185 4.8 17.7 0.00 10.01 0.03 56 1012.3
20260507140243 21 157 3.2 16.1 0.00 10.01 0.03 54 1012.3
20260507135732 21 200 6.4 12.9 0.00 2.59 0.03 55 1012.3
20260507135224 21 187 4.8 19.3 0.00 2.59 0.03 52 1012.4
20260507134732 21 186 4.8 19.3 0.00 2.59 0.03 55 1012.5
20260507134227 21 270 8.0 16.1 0.00 2.59 0.03 54 1012.5
20260507133759 21 217 9.7 19.3 0.00 2.59 0.03 54 1012.6
20260507133220 21 191 9.7 24.1 0.00 2.59 0.03 53 1012.6
20260507132732 21 190 6.4 24.1 0.00 2.59 0.03 55 1012.6
20260507132245 21 234 9.7 14.5 0.00 2.59 0.03 54 1012.7
20260507131737 21 249 4.8 16.1 0.00 2.59 0.03 53 1012.7
20260507131247 21 250 9.7 16.1 0.00 2.59 0.03 56 1012.8
20260507130729 21 166 4.8 16.1 0.00 2.59 0.03 51 1012.8
20260507130222 21 171 8.0 16.1 0.00 2.59 0.03 55 1012.8
20260507125736 20 294 8.0 16.1 0.00 2.64 0.03 58 1012.8
20260507125247 20 187 6.4 14.5 0.00 2.64 0.03 59 1012.8
20260507124758 20 355 3.2 16.1 0.00 2.64 0.03 55 1012.9
20260507124241 20 229 11.3 16.1 0.00 2.64 0.03 54 1012.9
20260507123730 20 215 4.8 11.3 0.00 2.64 0.03 58 1012.9
20260507123244 20 204 6.4 12.9 0.00 2.64 0.03 57 1012.9
20260507122732 20 281 3.2 14.5 0.00 2.64 0.03 55 1012.9
20260507122245 20 242 6.4 14.5 0.00 2.64 0.03 59 1013.0
20260507121728 20 253 8.0 14.5 0.00 2.64 0.03 56 1012.9
20260507121311 20 259 4.8 17.7 0.00 2.64 0.03 58 1012.9
20260507120758 20 194 6.4 17.7 0.00 2.64 0.03 57 1013.0
20260507120226 20 213 8.0 20.9 0.00 2.64 0.03 55 1013.0
20260507115721 20 208 9.7 14.5 0.00 2.64 0.03 59 1013.0
20260507115223 19 217 1.6 16.1 0.00 2.64 0.03 58 1013.0
20260507114803 19 275 9.7 17.7 0.00 2.64 0.03 59 1013.1
20260507114244 19 232 11.3 17.7 0.00 2.64 0.03 61 1013.1
20260507113733 19 235 4.8 16.1 0.00 2.64 0.03 61 1013.2
20260507113220 20 219 4.8 16.1 0.00 2.64 0.03 63 1013.2
20260507112734 20 177 6.4 14.5 0.00 2.64 0.03 65 1013.2
20260507112307 19 205 8.0 14.5 0.00 2.64 0.03 64 1013.3
20260507111736 19 232 4.8 17.7 0.00 2.64 0.03 63 1013.3
20260507111221 19 197 6.4 17.7 0.00 2.64 0.03 63 1013.4
20260507110729 19 162 3.2 12.9 0.00 2.64 0.03 60 1013.4
20260507110235 18 192 8.0 12.9 0.00 2.64 0.03 66 1013.5
20260507105746 18 92 3.2 11.3 0.00 2.64 0.03 66 1013.6
20260507105223 18 138 4.8 11.3 0.00 2.64 0.03 64 1013.6
20260507104735 18 221 4.8 14.5 0.00 2.64 0.03 68 1013.7
20260507104220 18 198 6.4 14.5 0.00 2.64 0.03 65 1013.7
20260507103753 18 191 4.8 14.5 0.00 2.64 0.03 68 1013.7
20260507103314 18 94 4.8 9.7 0.00 2.64 0.03 66 1013.7
20260507102747 18 107 1.6 9.7 0.00 2.64 0.03 67 1013.8
20260507102230 18 207 4.8 8.0 0.00 2.64 0.03 67 1013.8
20260507101739 18 140 0.0 11.3 0.00 2.64 0.03 66 1013.9
20260507101251 18 219 6.4 12.9 0.00 2.64 0.03 66 1013.9
20260507100800 18 203 4.8 14.5 0.00 2.64 0.03 65 1014.0
20260507100222 18 221 8.0 14.5 0.00 2.64 0.03 67 1014.0
20260507095736 18 228 6.4 12.9 0.00 2.64 0.03 68 1013.9
20260507095230 18 261 3.2 8.0 0.00 2.64 0.03 71 1014.0
20260507094744 18 176 4.8 8.0 0.00 2.64 0.03 67 1013.9
20260507094228 17 155 1.6 6.4 0.00 2.64 0.03 69 1013.9
20260507093741 17 63 4.8 8.0 0.00 2.64 0.03 68 1013.9
20260507093234 17 143 3.2 11.3 0.00 2.64 0.03 69 1014.0
20260507092719 17 206 8.0 12.9 0.00 2.64 0.03 69 1013.9
20260507092233 17 223 3.2 12.9 0.00 2.64 0.03 70 1013.9
20260507091727 17 223 4.8 11.3 0.00 2.64 0.03 71 1013.9
20260507091227 16 236 3.2 9.7 0.00 2.64 0.03 72 1013.8
20260507090737 16 69 3.2 4.8 0.00 2.64 0.03 70 1013.8
20260507090251 16 248 3.2 6.4 0.00 2.64 0.03 72 1013.9
20260507085741 16 222 3.2 6.4 0.00 2.84 0.03 72 1013.9
20260507085249 16 219 3.2 6.4 0.00 2.84 0.03 71 1013.9
20260507084741 16 117 1.6 4.8 0.00 2.84 0.03 71 1013.8
20260507084247 15 123 1.6 6.4 0.00 2.84 0.03 72 1013.8
20260507083730 15 119 3.2 6.4 0.00 2.84 0.03 75 1013.9
20260507083223 15 111 0.0 4.8 0.00 2.84 0.03 76 1013.8
20260507082727 15 116 3.2 4.8 0.00 2.84 0.03 78 1013.8
20260507082240 15 109 3.2 4.8 0.00 2.84 0.03 78 1013.8
20260507081751 15 30 1.6 6.4 0.00 2.84 0.03 79 1013.8
20260507081222 15 46 3.2 6.4 0.00 2.84 0.03 77 1013.7
20260507080751 15 12 1.6 6.4 0.00 2.84 0.03 79 1013.7
20260507080222 15 355 4.8 8.0 0.00 2.84 0.03 78 1013.7
20260507075732 15 306 4.8 8.0 0.00 2.92 0.03 78 1013.7
20260507075225 15 12 4.8 9.7 0.00 2.92 0.03 81 1013.5
20260507074727 14 332 4.8 9.7 0.00 2.92 0.03 82 1013.3
20260507074251 13 30 4.8 9.7 0.00 2.92 0.03 82 1013.3
20260507073722 13 18 6.4 11.3 0.00 2.92 0.03 80 1013.4
20260507073256 13 10 6.4 9.7 0.00 2.92 0.03 82 1013.4
20260507072748 13 32 6.4 12.9 0.00 2.92 0.03 82 1013.5
20260507072238 13 338 3.2 12.9 0.00 2.92 0.03 82 1013.4
20260507071731 13 5 4.8 9.7 0.00 2.92 0.03 82 1013.3
20260507071244 13 348 4.8 9.7 0.00 2.92 0.03 84 1013.3
20260507070732 13 336 4.8 12.9 0.00 2.92 0.03 85 1013.4
20260507070306 12 355 8.0 12.9 0.00 2.92 0.03 85 1013.4
20260507065729 12 16 4.8 12.9 0.00 2.92 0.03 85 1013.3
20260507065222 12 25 8.0 12.9 0.00 2.92 0.03 85 1013.2
20260507064734 12 5 6.4 11.3 0.00 2.92 0.03 85 1013.2
20260507064238 12 342 6.4 16.1 0.00 2.92 0.03 85 1013.2
20260507063732 12 360 6.4 16.1 0.00 2.92 0.03 85 1013.2
20260507063246 12 355 8.0 14.5 0.00 2.92 0.03 86 1013.1
20260507062731 12 15 6.4 12.9 0.00 2.92 0.03 88 1013.0
20260507062225 12 339 4.8 14.5 0.00 2.92 0.03 87 1012.9
20260507061731 12 331 8.0 14.5 0.00 2.92 0.03 88 1012.9
20260507061239 11 17 6.4 14.5 0.00 2.92 0.03 88 1012.9
20260507060748 11 332 6.4 12.9 0.00 2.92 0.03 88 1013.0
20260507060240 11 39 4.8 9.7 0.00 2.92 0.03 89 1012.9
20260507055723 11 338 4.8 9.7 0.00 2.95 0.03 90 1012.7
20260507055237 11 346 4.8 12.9 0.00 2.95 0.03 91 1012.7
20260507054729 11 18 4.8 8.0 0.00 2.95 0.03 92 1012.7
20260507054242 11 325 6.4 8.0 0.00 2.95 0.03 93 1012.7
20260507053726 11 342 3.2 6.4 0.00 2.95 0.03 92 1012.7
20260507053258 10 336 4.8 6.4 0.00 2.95 0.03 92 1012.6
20260507052720 10 355 3.2 8.0 0.00 2.95 0.03 93 1012.5
20260507052253 10 40 3.2 8.0 0.00 2.95 0.03 94 1012.4
20260507051724 10 355 1.6 8.0 0.00 2.95 0.03 93 1012.5
20260507051234 10 317 3.2 8.0 0.00 2.95 0.03 93 1012.5
20260507050744 10 343 3.2 8.0 0.00 2.95 0.03 93 1012.5
20260507050226 10 324 4.8 6.4 0.00 2.95 0.03 93 1012.3
20260507045738 10 346 1.6 3.2 0.00 3.00 0.03 93 1012.3
20260507045223 10 346 1.6 4.8 0.00 3.00 0.03 92 1012.2
20260507044742 10 355 1.6 4.8 0.10 3.00 0.03 92 1012.2
20260507044221 10 39 1.6 6.4 0.10 3.00 0.03 92 1012.2
20260507043734 10 42 1.6 6.4 0.10 3.00 0.03 92 1012.0
20260507043220 10 21 1.6 4.8 0.10 3.00 0.03 92 1012.1
20260507042733 10 34 3.2 4.8 0.10 3.00 0.03 92 1012.0
20260507042226 10 32 3.2 4.8 0.10 3.00 0.03 92 1012.0
20260507041739 10 40 1.6 4.8 0.10 3.00 0.03 92 1011.9
20260507041224 10 346 1.6 3.2 0.10 3.00 0.03 92 1011.9
20260507040732 10 346 1.6 4.8 0.10 3.00 0.03 91 1012.0
20260507040226 10 346 3.2 4.8 0.10 3.00 0.03 91 1012.0
20260507035730 10 59 1.6 3.2 0.10 3.02 0.03 91 1011.8
20260507035224 10 95 0.0 3.2 0.10 3.02 0.03 90 1011.9
20260507034738 10 95 0.0 4.8 0.00 3.02 0.00 90 1011.8
20260507034251 10 93 1.6 6.4 0.00 3.02 0.00 90 1011.8
20260507033733 10 31 3.2 12.9 0.00 3.02 0.00 89 1011.8
20260507033222 10 10 6.4 12.9 0.00 3.02 0.00 89 1011.7
20260507032734 10 355 6.4 9.7 0.00 3.02 0.00 89 1011.8
20260507032224 10 355 6.4 9.7 0.00 3.02 0.00 89 1011.8
20260507031737 10 9 6.4 9.7 0.00 3.02 0.00 88 1011.7
20260507031229 10 360 3.2 9.7 0.00 3.02 0.00 88 1011.8
20260507030737 10 355 4.8 9.7 0.00 3.02 0.00 88 1011.8
20260507030221 10 9 4.8 9.7 0.00 3.02 0.00 88 1011.8
20260507025734 10 27 4.8 12.9 0.00 3.05 0.00 88 1011.8
20260507025248 10 5 6.4 12.9 0.00 3.05 0.00 88 1011.8
20260507024739 10 5 6.4 12.9 0.00 3.05 0.00 88 1011.8
20260507024248 10 355 6.4 16.1 0.00 3.05 0.00 88 1011.8
20260507023732 10 22 9.7 16.1 0.00 3.05 0.00 88 1011.7
20260507023223 10 5 8.0 16.1 0.00 3.05 0.00 88 1011.8
20260507022735 10 9 9.7 16.1 0.00 3.05 0.00 89 1011.8
20260507022228 10 15 9.7 16.1 0.00 3.05 0.00 90 1011.8
20260507021724 10 348 8.0 16.1 0.00 3.05 0.00 91 1011.8
20260507021238 10 355 8.0 17.7 0.00 3.05 0.00 91 1011.8
20260507020727 10 42 8.0 17.7 0.00 3.05 0.00 92 1011.8
20260507020240 10 19 9.7 16.1 0.00 3.05 0.00 92 1011.8
20260507015739 10 343 8.0 19.3 0.00 3.10 0.00 92 1011.9
20260507015222 10 5 9.7 19.3 0.00 3.10 0.00 92 1011.8
20260507014734 10 5 6.4 12.9 0.00 3.10 0.00 92 1011.8
20260507014227 10 42 4.8 9.7 0.00 3.10 0.00 92 1011.7
20260507013730 10 10 6.4 11.3 0.00 3.10 0.00 92 1011.7
20260507013224 10 348 6.4 12.9 0.00 3.10 0.00 92 1011.7
20260507012738 10 5 6.4 12.9 0.00 3.10 0.00 92 1011.8
20260507012224 10 5 4.8 8.0 0.00 3.10 0.00 92 1011.7
20260507011735 10 5 4.8 11.3 0.00 3.10 0.00 92 1011.7
20260507011227 10 22 6.4 11.3 0.00 3.10 0.00 92 1011.7
20260507010735 10 355 3.2 9.7 0.00 3.10 0.00 92 1011.7
20260507010249 10 29 4.8 9.7 0.00 3.10 0.00 92 1011.6
20260507005801 10 22 4.8 9.7 0.00 3.12 0.00 92 1011.7
20260507005231 10 16 3.2 8.0 0.00 3.12 0.00 93 1011.6
20260507004734 10 14 0.0 6.4 0.00 3.12 0.00 93 1011.5
20260507004227 10 9 1.6 6.4 0.00 3.12 0.00 93 1011.5
20260507003801 10 336 3.2 4.8 0.00 3.12 0.00 93 1011.3
20260507003230 10 331 1.6 4.8 0.00 3.12 0.00 93 1011.4
20260507002727 10 331 1.6 4.8 0.00 3.12 0.00 93 1011.4
20260507002221 10 355 3.2 6.4 0.00 3.12 0.00 93 1011.3
20260507001734 10 360 3.2 6.4 0.00 3.12 0.00 93 1011.3
20260507001247 10 16 4.8 6.4 0.00 3.12 0.00 94 1011.3
20260507000757 10 36 4.8 9.7 0.00 3.12 0.00 94 1011.4
20260507000221 10 355 4.8 9.7 0.00 3.12 0.00 94 1011.4
20260506235734 10 332 4.8 8.0 0.00 3.12 0.00 94 1011.5
20260506235241 10 360 4.8 12.9 0.00 3.12 0.00 94 1011.4
20260506234724 10 9 6.4 12.9 0.00 3.12 0.00 95 1011.4
20260506234235 10 11 4.8 14.5 0.00 3.12 0.00 95 1011.4
20260506233729 10 26 6.4 14.5 0.00 3.12 0.00 95 1011.5
20260506233233 10 334 6.4 16.1 0.00 3.12 0.00 96 1011.4
20260506232726 10 360 8.0 16.1 0.00 3.12 0.00 96 1011.5
20260506232231 10 340 8.0 16.1 0.00 3.12 0.00 96 1011.4
20260506231729 10 355 6.4 16.1 0.00 3.12 0.00 96 1011.4
20260506231222 10 355 8.0 19.3 0.00 3.12 0.00 96 1011.4
20260506230732 10 355 9.7 19.3 0.00 3.12 0.00 96 1011.3
20260506230246 10 5 9.7 17.7 0.00 3.12 0.00 96 1011.4
20260506225731 10 355 6.4 14.5 0.00 3.12 0.00 96 1011.4
20260506225225 10 329 4.8 12.9 0.00 3.12 0.00 96 1011.3
20260506224739 10 13 6.4 11.3 0.00 3.12 0.00 96 1011.4
20260506224224 10 360 4.8 12.9 0.00 3.12 0.00 96 1011.2